weather.gov     
National Weather Service

Regional Weather Roundup
NWS Homepage
This page is being discontinued on March 12, 2014.
The same data is available at this site. Please update your bookmarks.
Thank you, and we apologize for the inconvenience.
Please send an email to SR-SRH.Webmaster@noaa.gov with any concerns.


Current Version
Previous Version:    01  02  03  04  05  06  07  08  09  10  11  12  13  14  15  16  17  18  19  20  21  22  23  24  25  26  27  28  29  30  
   31  32  33  34  35  36  37  38  39  40  41  42  43  44  45  46  47  48  49  50  51  52  53  
[Printable]
570
ASUS43 KFSD 020410
RWRFSD

WEATHER ROUNDUP FOR SE SOUTH DAKOTA/SW MINNESOTA/NW IOWA
NATIONAL WEATHER SERVICE SIOUX FALLS SD
1100 PM CDT FRI AUG 01 2014

NOTE: "FAIR" INDICATES FEW OR NO CLOUDS BELOW 12,000 FEET WITH NO
SIGNIFICANT WEATHER AND OR OBSTRUCTIONS TO VISIBILITY.


SDZ038>040-050-052>070-020500-
SOUTHEAST SOUTH DAKOTA

CITY           SKY/WX    TMP DP  RH WIND       PRES   REMARKS
CHAMBERLAIN    LGT RAIN  67  62  85 CALM      30.12F
HURON          MOCLDY    69  57  65 SE6       30.07R
MADISON        FAIR      64  63  94 S6        30.12R
MITCHELL       PTCLDY    70  60  70 S8        30.09R
SIOUX FALLS    PTCLDY    71  58  63 SW3       30.12R
WINNER         RAIN      69  59  70 SE12      30.10R
YANKTON        CLEAR     68  61  77 CALM      30.12R
$$

MNZ071-072-080-081-089-090-097-098-020500-
SOUTHWEST MINNESOTA

CITY           SKY/WX    TMP DP  RH WIND       PRES   REMARKS
FAIRMONT       CLEAR     64  55  72 S5        30.11S
JACKSON        CLEAR     64  59  82 SE3       30.12S
LUVERNE        CLEAR     64  61  88 CALM      30.12R
MARSHALL       CLEAR     66  59  77 S3        30.09R
MONTEVIDEO     CLEAR     66  63  88 CALM      30.09R
PIPESTONE      CLEAR     66  59  77 S3        30.12R
REDWOOD FALLS  CLEAR     69  62  78 S6        30.08S
TRACY          CLEAR     69  60  73 S6        30.11R
WINDOM         CLEAR     64  61  88 CALM      30.11S
WORTHINGTON    CLEAR     64  57  77 CALM      30.14R
$$

IAZ001>003-012>014-020>022-031-032-NEZ013-014-SDZ071-020500-
NORTHWEST IOWA

CITY           SKY/WX    TMP DP  RH WIND       PRES   REMARKS
CHEROKEE       CLEAR     64  63  96 CALM      30.11S
DENISON        CLEAR     63  63 100 E3        30.10R
ESTHERVILLE    CLEAR     62  59  90 CALM      30.11S
LE MARS        CLEAR     63  59  88 CALM      30.12R
ORANGE CITY    CLEAR     68  57  68 CALM      30.12R
SHELDON        CLEAR     63  59  88 CALM      30.11R
SIOUX CITY     CLEAR     65  61  87 CALM      30.11R
SPENCER        CLEAR     64  60  87 SE3       30.12R
STORM LAKE     MOCLDY    63  61  94 CALM      30.13R
$$

ABBREVIATIONS USED IN REMARKS
   TC - TEMPERATURE IN CELSIUS
  WCI - WIND CHILL INDEX
   HX - HEAT INDEX
  VSB - VISIBILITY





U.S. Dept. of Commerce
NOAA National Weather Service
1325 East West Highway
Silver Spring, MD 20910
E-mail: w-nws.webmaster@noaa.gov
Page last modified: May 16, 2007
NATIONAL WEATHER SERVICE: for Safety, for Work, for Fun - FOR LIFE